Location: Bullfrog
(37.5121°N, 110.7330°W)
Time: 02:27:01
(UTC-07:00)

BlueWalker 3 - Visible Passes

Search period start: 20 January 2026 00:00
Search period end: 30 January 2026 00:00
Orbit: 451 x 463 km, 53.2° (Epoch: 19 January)

Date Brightness Start Highest point End Pass type
(mag) Time Alt. Az. Time Alt. Az. Time Alt. Az.
20 Jan 1.6 18:43:07 10° SW 18:46:40 74° SE 18:48:25 28° NE visible
20 Jan 5.2 20:22:09 10° WNW 20:22:11 10° WNW 20:22:11 10° WNW visible
21 Jan 2.0 18:07:51 10° SSW 18:11:19 52° SE 18:14:48 10° ENE visible
21 Jan 4.0 19:46:20 10° W 19:48:32 19° NW 19:48:32 19° NW visible
22 Jan 3.6 19:10:34 10° W 19:13:32 24° NNW 19:14:49 20° N visible
23 Jan 3.2 18:34:52 10° W 18:38:03 30° NW 18:41:01 11° NNE visible
25 Jan 4.4 19:04:10 10° NW 19:05:19 11° NNW 19:06:27 10° N visible
26 Jan 4.3 18:27:58 10° NW 18:29:43 13° NNW 18:31:28 10° N visible
